Regional Weather Roundup
Issued by NWS

Home | Current Version | Previous Version | Text Only | Print | Product List | Glossary Off
Versions: 1 2 3 4 5 6 7 8 9 10 11 12 13 14 15 16 17 18 19 20 21 22 23 24 25 26 27

000
ASUS45 KTFX 232210
RWRMT
MONTANA REGIONAL WEATHER ROUNDUP
NATIONAL WEATHER SERVICE GREAT FALLS MT
400 PM MDT FRI JUN 23 2017

NOTE: "FAIR" INDICATES FEW OR NO CLOUDS BELOW 12000 FEET WITH NO
SIGNIFICANT WEATHER AND/OR OBSTRUCTIONS TO VISIBILITY.

MTZ001>007-043-232300-
WEST OF THE DIVIDE

CITY           SKY/WX    TMP DP  RH WIND       PRES   REMARKS
KALISPELL      SUNNY     73  38  27 W5        30.20F
MISSOULA       SUNNY     75  35  23 MISG      30.18F
BUTTE          SUNNY     69  29  22 W10       30.26F
MULLAN PASS    SUNNY     64  24  21 VRB5      30.32F
ANACONDA         N/A     66  34  30 N7        30.25S
DEER LODGE       N/A     70  36  28 SE5       30.27S
EUREKA           N/A     75  34  22 MISG      30.20S
HAMILTON         N/A     73  36  25 NW7       30.20F
$$

MTZ008-052>055-232300-
SOUTHWEST MONTANA

CITY           SKY/WX    TMP DP  RH WIND       PRES   REMARKS
BOZEMAN        SUNNY     71  31  22 VRB6      30.25F
DILLON         SUNNY     70  32  24 N7        30.24F
W YELLOWSTONE  SUNNY     64  25  22 SW12      30.27F
ENNIS          SUNNY     68  30  24 NW9G16    30.30F
THREE FORKS      N/A     69  32  25 W1        30.21F
$$

MTZ009-010-012-014-046-048-049-054-232300-
EAST SLOPES AND CENTRAL MONTANA

CITY           SKY/WX    TMP DP  RH WIND       PRES   REMARKS
CUT BANK       PTSUNNY   64  37  36 N10       30.27F
GREAT FALLS    CLOUDY    66  36  32 NE5       30.25S
MALMSTROM AFB  PTSUNNY   65  38  36 NE9       30.26S
HELENA         SUNNY     73  33  23 VRB6      30.22F
CHOTEAU          N/A     68  37  32 N9        30.28S
CONRAD           N/A     67  47  48 N8        30.27F
$$

MTZ011-013-016-021-045-047-050-051-232300-
NORTH CENTRAL MONTANA

CITY           SKY/WX    TMP DP  RH WIND       PRES   REMARKS
HAVRE          MOSUNNY   70  35  27 W12G21    30.22F
LEWISTOWN      MOSUNNY   64  37  36 NW13G25   30.27S
N BAR RANCH      N/A     64  36  34 NW15      30.29R
CHINOOK          N/A     70  36  28 W13G18    30.20F
FORT BENTON      N/A     70  36  28 MISG      30.26S
$$

MTZ017>020-022>027-061-062-232300-
NORTHEAST MONTANA

CITY           SKY/WX    TMP DP  RH WIND       PRES   REMARKS
GLASGOW        MOSUNNY   68  29  23 NW18G26   30.17S
JORDAN           N/A     68  27  21 W16G39    30.19F
SIDNEY         MOSUNNY   67  32  27 NW18      30.13S
WOLF POINT     MOSUNNY   70  29  21 NW20G31   30.15S
MALTA            N/A     70  32  24 NW20      30.19S
PLENTYWOOD       N/A     63  32  31 NW24G32   30.10F
POPLAR           N/A     66  30  26 NW23G30   30.14S
$$

MTZ028>42-056>058-232300-
SOUTHCENTRAL AND SOUTHEAST MONTANA

CITY           SKY/WX    TMP DP  RH WIND       PRES   REMARKS
BAKER          SUNNY     67  28  23 NW21G30   30.17F
BILLINGS       PTSUNNY   69  33  26 N13       30.23S
LIVINGSTON     SUNNY     70  34  26 NW9       30.24S
MILES CITY     SUNNY     72  25  17 NW22G29   30.18F
BIG TIMBER     CLOUDY    68  30  24 VRB6G18   30.25S
FORSYTH          N/A     70  30  23 W8G18     30.20S
ROUNDUP          N/A     66  34  30 S9        30.13S
$$

REGIONAL REPORTS...DAKOTAS

CITY           SKY/WX    TMP DP  RH WIND       PRES   REMARKS
WILLISTON      PTSUNNY   69  32  25 NW23G30   30.11F
MINOT          PTSUNNY   61  35  37 NW25G36   30.05R
DICKINSON      PTSUNNY   66  27  23 NW22G33   30.10S
BEACH            N/A     64  28  25 NW23      30.18S
CROSBY         PTSUNNY   63  32  31 NW24G35   30.10S
TIOGA          PTSUNNY   61  32  33 NW26G35   30.11S
WATFORD CITY   PTSUNNY   64  34  32 NW18G30   30.11S
BISMARCK       MOSUNNY   68  35  29 NW25G33   30.05S
GRAND FORKS    PTSUNNY   66  43  43 NW18G28   29.90R
FARGO          CLOUDY    65  44  46 NW15G24   29.91S
BUFFALO SD       N/A     67  27  22 NW24G37   30.10S
RAPID CITY     SUNNY     70  30  22 N30G39    30.15S
$$

REGIONAL REPORTS...WYOMING/IDAHO/WASHINGTON

CITY           SKY/WX    TMP DP  RH WIND       PRES   REMARKS
GILLETTE       PTSUNNY   66  30  26 NW13G30   30.22S
SHERIDAN       CLOUDY    67  35  30 N14       30.24S
BUFFALO WY     PTSUNNY   63  33  32 N21G26    30.27F
CODY           SUNNY     66  29  24 N7        30.26F
YELLOWSTONE LA   N/A     60  32  34 VRB6      30.34S
IDAHO FALLS    SUNNY     72  34  24 CALM      30.22S
SALMON         SUNNY    N/A N/A N/A N6        30.16F
BOISE          SUNNY     81  30  15 NW10      30.14F
SPOKANE        MOSUNNY   79  30  16 W10       30.21F
$$

REGIONAL REPORTS...ALBERTA

CITY           SKY/WX    TMP DP  RH WIND       PRES   REMARKS
EDMONTON       MOSUNNY   68  39  34 NW13G18   30.20S
CALGARY        PTSUNNY   66  34  30 VRB3      30.25F
LETHBRIDGE     PTSUNNY   68  37  32 NW7       30.25S
MEDICINE HAT   PTSUNNY   68  37  32 NW8G18    30.20S
WATERTON GATE    N/A     64  43  45 SW2         N/A
CARDSTON         N/A     64  39  39 NE8         N/A
MILK RIVER       N/A     64  41  42 NW13G21     N/A
ONEFOUR          N/A     64  37  36 NW18G26     N/A
$$

REGIONAL REPORTS...SASKATCHEWAN

CITY           SKY/WX    TMP DP  RH WIND       PRES   REMARKS
SWIFT CURRENT  CLOUDY    61  39  44 NW20G29   30.15S
REGINA         PTSUNNY   61  34  36 NW24      30.08F
SASKATOON      PTSUNNY   64  34  32 N20G29    30.11S
CYPRESS HILLS    N/A     61  37  41 NW8         N/A
VAL MARIE        N/A     64  30  27 NW20G25     N/A
ROCKGLEN         N/A     59  32  36 NW18G29     N/A
ASSINIBOIA       N/A     68  36  30 N14         N/A
$$




USA.gov is the U.S. government's official web portal to all federal, state and local government web resources and services.